Simultaneous Nadir Overpasses (SNOs) Predictions

Prediction of SNOs between AQUA and LANDSAT-8 Satellite Orbit:

Table of predicted SNOs for the next 14.0 days since TLE Epoch: 9/30/2025
Index Date (AQUA) Time (AQUA) Lat,Lon (AQUA) SZA (AQUA ) Date (LANDSAT-8) Time (LANDSAT-8) Lat,Lon (LANDSAT-8) SZA (LANDSAT-8 ) Distance(km) Time Diff (sec)
1 10/13/2025 10:52:34 75.40, 26.72 83.66 10/13/2025 10:51:29 75.43, 23.79 83.52 82.05 65
2 10/13/2025 11:42:00 -75.83,-166.90 95.98 10/13/2025 11:40:48 -75.85,-167.33 95.99 12.00 72
3 10/13/2025 12:31:19 75.90, 0.58 84.09 10/13/2025 12:30:12 75.92, 0.51 84.10 3.10 67
4 10/13/2025 13:20:37 -75.94, 168.13 95.86 10/13/2025 13:19:39 -75.95, 168.23 95.86 3.01 58
5 10/13/2025 14:09:54 75.90, -24.09 84.13 10/13/2025 14:09:05 75.91, -24.22 84.12 3.90 49
6 10/13/2025 14:59:12 -75.94, 143.47 95.83 10/13/2025 14:58:32 -75.94, 143.50 95.84 1.03 40
7 10/13/2025 15:48:30 75.96, -48.90 84.20 10/13/2025 15:47:57 75.96, -48.80 84.20 2.83 33
8 10/13/2025 16:37:47 -75.95, 118.80 95.80 10/13/2025 16:37:25 -75.94, 118.78 95.81 1.13 22
9 10/13/2025 17:27:05 75.96, -73.57 84.23 10/13/2025 17:26:50 75.96, -73.53 84.22 1.32 15
10 10/13/2025 18:16:22 -75.96, 94.14 95.77 10/13/2025 18:16:18 -75.94, 94.05 95.79 3.12 4
11 10/13/2025 19:05:40 75.97, -98.23 84.26 10/13/2025 19:05:43 75.96, -98.26 84.24 1.94 3
12 10/13/2025 19:54:57 -75.96, 69.47 95.74 10/13/2025 19:55:10 -75.98, 69.47 95.71 2.41 13
13 10/13/2025 20:44:15 75.98,-122.90 84.29 10/13/2025 20:44:35 76.00,-122.84 84.32 3.04 20
14 10/13/2025 21:33:32 -75.97, 44.81 95.71 10/13/2025 21:34:03 -75.98, 44.74 95.69 2.27 31
15 10/13/2025 22:22:50 75.99,-147.57 84.32 10/13/2025 22:23:28 76.00,-147.57 84.35 1.39 38
16 10/13/2025 23:12:07 -75.98, 20.14 95.68 10/13/2025 23:12:56 -75.98, 20.01 95.67 3.56 49
17 10/14/2025 00:01:25 75.99,-172.23 84.36 10/14/2025 00:02:21 76.00,-172.29 84.37 1.71 56
18 10/14/2025 00:50:43 -76.03, -4.68 95.60 10/14/2025 00:51:48 -76.02, -4.57 95.59 3.05 65
19 10/14/2025 01:40:01 76.05, 162.95 84.43 10/14/2025 01:41:13 76.04, 163.13 84.45 4.92 72
20 10/14/2025 02:29:27 -76.47, -30.78 95.21 10/14/2025 02:30:33 -76.41, -28.06 95.13 71.28 66



Historial Predications of SNOs between AQUA and LANDSAT-8
